"Sample Date","Sample Time","Sample Value","Units","Flow Rate","Sample Interval","Number Channels","Micron Size 0","Counts/Channel 0","Micron Size 1","Counts/Channel 1","Micron Size 2","Counts/Channel 2","Micron Size 3","Counts/Channel 3","Micron Size 4","Counts/Channel 4","Micron Size 5","Counts/Channel 5","Micron Size 6","Counts/Channel 6","Micron Size 7","Counts/Channel 7","Micron Size 8","Counts/Channel 8","Micron Size 9","Counts/Channel 9","Micron Size 10","Counts/Channel 10","Micron Size 11","Counts/Channel 11","Micron Size 12","Counts/Channel 12","Micron Size 13","Counts/Channel 13","Micron Size 14","Counts/Channel 14","Micron Size 15","Counts/Channel 15","Micron Size 16","Counts/Channel 16","Micron Size 17","Counts/Channel 17","Micron Size 18","Counts/Channel 18","Micron Size 19","Counts/Channel 19","Micron Size 20","Counts/Channel 20","Micron Size 21","Counts/Channel 21","Micron Size 22","Counts/Channel 22","Micron Size 23","Counts/Channel 23","Micron Size 24","Counts/Channel 24","Micron Size 25","Counts/Channel 25","Micron Size 26","Counts/Channel 26","Micron Size 27","Counts/Channel 27","Micron Size 28","Counts/Channel 28","Micron Size 29","Counts/Channel 29","Micron Size 30","Counts/Channel 30","Micron Size 31","Counts/Channel 31"
"04/08/08","00:00:03",13791.000,"cc",28250.811,6.00,6,0.100,7653.000,0.200,1899.000,0.300,1656.000,0.500,1836.000,1.000,747.000,5.000,0
"04/08/08","00:00:09",13751.000,"cc",28214.488,6.00,6,0.100,7816.000,0.200,1864.000,0.300,1581.000,0.500,1794.000,1.000,696.000,5.000,0
"04/08/08","00:00:15",13768.000,"cc",28287.475,6.00,6,0.100,7728.000,0.200,1886.000,0.300,1583.000,0.500,1850.000,1.000,721.000,5.000,0
"04/08/08","00:00:21",13576.000,"cc",28377.104,6.00,6,0.100,7614.000,0.200,1862.000,0.300,1576.000,0.500,1800.000,1.000,724.000,5.000,0
"04/08/08","00:00:27",13656.000,"cc",28435.447,6.00,6,0.100,7647.000,0.200,1895.000,0.300,1617.000,0.500,1802.000,1.000,695.000,5.000,0
"04/08/08","00:00:33",14034.000,"cc",28279.023,6.00,6,0.100,7862.000,0.200,1929.000,0.300,1627.000,0.500,1860.000,1.000,756.000,5.000,0
"04/08/08","00:00:39",13998.000,"cc",28382.615,6.00,6,0.100,7915.000,0.200,1827.000,0.300,1677.000,0.500,1852.000,1.000,727.000,5.000,0
"04/08/08","00:00:45",13894.000,"cc",28304.600,6.00,6,0.100,7773.000,0.200,1931.000,0.300,1616.000,0.500,1825.000,1.000,749.000,5.000,0
"04/08/08","00:00:51",13977.000,"cc",28330.486,6.00,6,0.100,7757.000,0.200,1996.000,0.300,1686.000,0.500,1808.000,1.000,729.000,5.000,1.000
"04/08/08","00:00:57",13997.000,"cc",28274.291,6.00,6,0.100,7794.000,0.200,1965.000,0.300,1626.000,0.500,1883.000,1.000,729.000,5.000,0
"04/08/08","00:01:03",13511.000,"cc",28412.691,6.00,6,0.100,7624.000,0.200,1816.000,0.300,1510.000,0.500,1822.000,1.000,739.000,5.000,0
"04/08/08","00:01:09",13592.000,"cc",28297.998,6.00,6,0.100,7629.000,0.200,1881.000,0.300,1572.000,0.500,1774.000,1.000,736.000,5.000,0
"04/08/08","00:01:15",13722.000,"cc",28168.652,6.00,6,0.100,7565.000,0.200,1979.000,0.300,1614.000,0.500,1838.000,1.000,726.000,5.000,0
"04/08/08","00:01:21",14021.000,"cc",28325.971,6.00,6,0.100,7855.000,0.200,1891.000,0.300,1625.000,0.500,1864.000,1.000,786.000,5.000,0
"04/08/08","00:01:27",14311.000,"cc",28307.109,6.00,6,0.100,7909.000,0.200,1980.000,0.300,1691.000,0.500,1971.000,1.000,760.000,5.000,0
"04/08/08","00:01:33",14033.000,"cc",28343.779,6.00,6,0.100,7811.000,0.200,1964.000,0.300,1679.000,0.500,1852.000,1.000,727.000,5.000,0
"04/08/08","00:01:39",14027.000,"cc",28329.229,6.00,6,0.100,7754.000,0.200,1945.000,0.300,1657.000,0.500,1906.000,1.000,765.000,5.000,0
"04/08/08","00:01:45",13620.000,"cc",28467.578,6.00,6,0.100,7603.000,0.200,1956.000,0.300,1582.000,0.500,1769.000,1.000,710.000,5.000,0
"04/08/08","00:01:51",13467.000,"cc",28335.818,6.00,6,0.100,7607.000,0.200,1862.000,0.300,1561.000,0.500,1762.000,1.000,675.000,5.000,0
"04/08/08","00:01:57",13494.000,"cc",28354.232,6.00,6,0.100,7600.000,0.200,1786.000,0.300,1712.000,0.500,1706.000,1.000,690.000,5.000,0
"04/08/08","00:02:03",13792.000,"cc",28308.590,6.00,6,0.100,7662.000,0.200,1938.000,0.300,1612.000,0.500,1839.000,1.000,741.000,5.000,0
"04/08/08","00:02:09",14036.000,"cc",28305.856,6.00,6,0.100,7825.000,0.200,1907.000,0.300,1683.000,0.500,1865.000,1.000,756.000,5.000,0
"04/08/08","00:02:15",14305.000,"cc",28230.174,6.00,6,0.100,7871.000,0.200,2021.000,0.300,1654.000,0.500,1932.000,1.000,827.000,5.000,0
"04/08/08","00:02:21",14230.000,"cc",28302.650,6.00,6,0.100,7843.000,0.200,1974.000,0.300,1747.000,0.500,1904.000,1.000,762.000,5.000,0
"04/08/08","00:02:27",14276.000,"cc",28333.887,6.00,6,0.100,7938.000,0.200,2014.000,0.300,1702.000,0.500,1873.000,1.000,749.000,5.000,0
"04/08/08","00:02:33",14160.000,"cc",28357.441,6.00,6,0.100,7781.000,0.200,2040.000,0.300,1688.000,0.500,1879.000,1.000,772.000,5.000,0
"04/08/08","00:02:39",13791.000,"cc",28291.207,6.00,6,0.100,7586.000,0.200,1907.000,0.300,1659.000,0.500,1887.000,1.000,752.000,5.000,0
"04/08/08","00:02:45",14045.000,"cc",28325.688,6.00,6,0.100,7863.000,0.200,1916.000,0.300,1671.000,0.500,1838.000,1.000,757.000,5.000,0
"04/08/08","00:02:51",14318.000,"cc",28299.451,6.00,6,0.100,7908.000,0.200,2048.000,0.300,1703.000,0.500,1879.000,1.000,780.000,5.000,0
"04/08/08","00:02:57",14196.000,"cc",28237.539,6.00,6,0.100,7831.000,0.200,1974.000,0.300,1664.000,0.500,1935.000,1.000,792.000,5.000,0
"04/08/08","00:03:03",14607.000,"cc",28307.172,6.00,6,0.100,7978.000,0.200,2089.000,0.300,1745.000,0.500,2003.000,1.000,792.000,5.000,0
"04/08/08","00:03:09",14592.000,"cc",28314.965,6.00,6,0.100,7973.000,0.200,2012.000,0.300,1825.000,0.500,1982.000,1.000,799.000,5.000,1.000
"04/08/08","00:03:15",14513.000,"cc",28231.971,6.00,6,0.100,7998.000,0.200,1999.000,0.300,1791.000,0.500,1994.000,1.000,731.000,5.000,0
"04/08/08","00:03:21",14708.000,"cc",28300.131,6.00,6,0.100,8021.000,0.200,2086.000,0.300,1755.000,0.500,2018.000,1.000,828.000,5.000,0
"04/08/08","00:03:27",13911.000,"cc",28394.746,6.00,6,0.100,7779.000,0.200,1948.000,0.300,1628.000,0.500,1812.000,1.000,744.000,5.000,0
"04/08/08","00:03:33",14180.000,"cc",28273.057,6.00,6,0.100,7848.000,0.200,1979.000,0.300,1659.000,0.500,1928.000,1.000,766.000,5.000,0
"04/08/08","00:03:39",14935.000,"cc",28416.842,6.00,6,0.100,8271.000,0.200,2076.000,0.300,1782.000,0.500,2011.000,1.000,795.000,5.000,0
"04/08/08","00:03:45",14383.000,"cc",28297.426,6.00,6,0.100,8011.000,0.200,1915.000,0.300,1736.000,0.500,1921.000,1.000,800.000,5.000,0
"04/08/08","00:03:51",13921.000,"cc",28330.379,6.00,6,0.100,7637.000,0.200,1980.000,0.300,1642.000,0.500,1915.000,1.000,746.000,5.000,1.000
"04/08/08","00:03:57",14034.000,"cc",28362.584,6.00,6,0.100,7684.000,0.200,1949.000,0.300,1720.000,0.500,1886.000,1.000,795.000,5.000,0
"04/08/08","00:04:03",13370.000,"cc",28376.609,6.00,6,0.100,7432.000,0.200,1846.000,0.300,1588.000,0.500,1814.000,1.000,690.000,5.000,0
"04/08/08","00:04:09",13108.000,"cc",28396.893,6.00,6,0.100,7400.000,0.200,1808.000,0.300,1515.000,0.500,1649.000,1.000,736.000,5.000,0
"04/08/08","00:04:15",13203.000,"cc",28330.127,6.00,6,0.100,7303.000,0.200,1831.000,0.300,1558.000,0.500,1794.000,1.000,717.000,5.000,0
"04/08/08","00:04:21",13328.000,"cc",28217.486,6.00,6,0.100,7562.000,0.200,1763.000,0.300,1601.000,0.500,1708.000,1.000,694.000,5.000,0
"04/08/08","00:04:27",13750.000,"cc",28265.840,6.00,6,0.100,7709.000,0.200,1879.000,0.300,1659.000,0.500,1789.000,1.000,714.000,5.000,0
"04/08/08","00:04:33",13849.000,"cc",28243.598,6.00,6,0.100,7652.000,0.200,1945.000,0.300,1621.000,0.500,1895.000,1.000,735.000,5.000,1.000
"04/08/08","00:04:39",13512.000,"cc",28413.475,6.00,6,0.100,7501.000,0.200,1900.000,0.300,1598.000,0.500,1781.000,1.000,732.000,5.000,0
"04/08/08","00:04:45",13662.000,"cc",28349.236,6.00,6,0.100,7635.000,0.200,1888.000,0.300,1644.000,0.500,1765.000,1.000,730.000,5.000,0
"04/08/08","00:04:51",13836.000,"cc",28287.344,6.00,6,0.100,7695.000,0.200,1895.000,0.300,1614.000,0.500,1865.000,1.000,767.000,5.000,0
"04/08/08","00:04:57",13698.000,"cc",28408.096,6.00,6,0.100,7477.000,0.200,1971.000,0.300,1678.000,0.500,1811.000,1.000,761.000,5.000,0
"04/08/08","00:05:03",13610.000,"cc",28246.787,6.00,6,0.100,7472.000,0.200,1896.000,0.300,1647.000,0.500,1851.000,1.000,744.000,5.000,0
"04/08/08","00:05:09",13983.000,"cc",28345.385,6.00,6,0.100,7735.000,0.200,1935.000,0.300,1663.000,0.500,1895.000,1.000,754.000,5.000,1.000
"04/08/08","00:05:15",13724.000,"cc",28261.934,6.00,6,0.100,7656.000,0.200,1873.000,0.300,1634.000,0.500,1831.000,1.000,730.000,5.000,0
"04/08/08","00:05:21",14121.000,"cc",28325.994,6.00,6,0.100,7726.000,0.200,2002.000,0.300,1727.000,0.500,1951.000,1.000,715.000,5.000,0
"04/08/08","00:05:27",13711.000,"cc",28372.215,6.00,6,0.100,7591.000,0.200,1956.000,0.300,1629.000,0.500,1828.000,1.000,707.000,5.000,0
"04/08/08","00:05:33",13596.000,"cc",28372.986,6.00,6,0.100,7554.000,0.200,1881.000,0.300,1615.000,0.500,1816.000,1.000,730.000,5.000,0
"04/08/08","00:05:39",13197.000,"cc",28356.803,6.00,6,0.100,7277.000,0.200,1839.000,0.300,1571.000,0.500,1815.000,1.000,695.000,5.000,0
"04/08/08","00:05:45",13145.000,"cc",28299.215,6.00,6,0.100,7188.000,0.200,1871.000,0.300,1634.000,0.500,1750.000,1.000,702.000,5.000,0
"04/08/08","00:05:51",13059.000,"cc",28294.076,6.00,6,0.100,7175.000,0.200,1816.000,0.300,1611.000,0.500,1742.000,1.000,715.000,5.000,0
"04/08/08","00:05:57",13102.000,"cc",28319.574,6.00,6,0.100,7222.000,0.200,1836.000,0.300,1584.000,0.500,1690.000,1.000,770.000,5.000,0
"04/08/08","00:06:03",13335.000,"cc",28294.561,6.00,6,0.100,7259.000,0.200,1925.000,0.300,1595.000,0.500,1827.000,1.000,729.000,5.000,0
"04/08/08","00:06:09",13035.000,"cc",28307.508,6.00,6,0.100,7192.000,0.200,1828.000,0.300,1512.000,0.500,1746.000,1.000,757.000,5.000,0
"04/08/08","00:06:15",12938.000,"cc",28395.938,6.00,6,0.100,7176.000,0.200,1768.000,0.300,1512.000,0.500,1771.000,1.000,711.000,5.000,0
"04/08/08","00:06:21",13023.000,"cc",28329.033,6.00,6,0.100,7055.000,0.200,1817.000,0.300,1595.000,0.500,1801.000,1.000,755.000,5.000,0
"04/08/08","00:06:27",13041.000,"cc",28292.807,6.00,6,0.100,7208.000,0.200,1819.000,0.300,1510.000,0.500,1795.000,1.000,708.000,5.000,1.000
"04/08/08","00:06:33",13028.000,"cc",28334.613,6.00,6,0.100,7204.000,0.200,1854.000,0.300,1589.000,0.500,1690.000,1.000,691.000,5.000,0
"04/08/08","00:06:39",12900.000,"cc",28349.193,6.00,6,0.100,7227.000,0.200,1749.000,0.300,1518.000,0.500,1754.000,1.000,652.000,5.000,0
"04/08/08","00:06:45",12920.000,"cc",28232.240,6.00,6,0.100,7040.000,0.200,1869.000,0.300,1582.000,0.500,1729.000,1.000,700.000,5.000,0
"04/08/08","00:06:51",13001.000,"cc",28354.861,6.00,6,0.100,7091.000,0.200,1834.000,0.300,1530.000,0.500,1815.000,1.000,730.000,5.000,1.000
"04/08/08","00:06:57",12962.000,"cc",28438.445,6.00,6,0.100,7115.000,0.200,1800.000,0.300,1630.000,0.500,1734.000,1.000,683.000,5.000,0
"04/08/08","00:07:03",12923.000,"cc",28290.186,6.00,6,0.100,7077.000,0.200,1857.000,0.300,1534.000,0.500,1714.000,1.000,741.000,5.000,0
"04/08/08","00:07:09",13217.000,"cc",28222.332,6.00,6,0.100,7210.000,0.200,1855.000,0.300,1641.000,0.500,1818.000,1.000,693.000,5.000,0
"04/08/08","00:07:15",13024.000,"cc",28301.518,6.00,6,0.100,7203.000,0.200,1794.000,0.300,1573.000,0.500,1759.000,1.000,695.000,5.000,0
"04/08/08","00:07:21",12311.000,"cc",28377.635,6.00,6,0.100,6858.000,0.200,1673.000,0.300,1491.000,0.500,1632.000,1.000,657.000,5.000,0
"04/08/08","00:07:27",12770.000,"cc",28243.115,6.00,6,0.100,7037.000,0.200,1827.000,0.300,1527.000,0.500,1723.000,1.000,656.000,5.000,0
"04/08/08","00:07:33",12676.000,"cc",28242.332,6.00,6,0.100,6982.000,0.200,1781.000,0.300,1496.000,0.500,1740.000,1.000,676.000,5.000,1.000
"04/08/08","00:07:39",12599.000,"cc",28386.547,6.00,6,0.100,7011.000,0.200,1741.000,0.300,1528.000,0.500,1705.000,1.000,613.000,5.000,1.000
"04/08/08","00:07:45",12528.000,"cc",28291.807,6.00,6,0.100,6916.000,0.200,1712.000,0.300,1489.000,0.500,1672.000,1.000,739.000,5.000,0
"04/08/08","00:07:51",13253.000,"cc",28274.678,6.00,6,0.100,7274.000,0.200,1886.000,0.300,1647.000,0.500,1793.000,1.000,653.000,5.000,0
"04/08/08","00:07:57",13000.000,"cc",28273.496,6.00,6,0.100,7180.000,0.200,1783.000,0.300,1646.000,0.500,1765.000,1.000,626.000,5.000,0
"04/08/08","00:08:03",13011.000,"cc",28368.848,6.00,6,0.100,7128.000,0.200,1810.000,0.300,1566.000,0.500,1799.000,1.000,708.000,5.000,0
"04/08/08","00:08:09",12812.000,"cc",28296.488,6.00,6,0.100,6948.000,0.200,1847.000,0.300,1535.000,0.500,1790.000,1.000,692.000,5.000,0
"04/08/08","00:08:15",12807.000,"cc",28294.822,6.00,6,0.100,6980.000,0.200,1838.000,0.300,1497.000,0.500,1746.000,1.000,746.000,5.000,0
"04/08/08","00:08:21",12857.000,"cc",28242.811,6.00,6,0.100,7039.000,0.200,1858.000,0.300,1531.000,0.500,1730.000,1.000,699.000,5.000,0
"04/08/08","00:08:27",12724.000,"cc",28396.059,6.00,6,0.100,7048.000,0.200,1805.000,0.300,1463.000,0.500,1718.000,1.000,690.000,5.000,0
"04/08/08","00:08:33",12913.000,"cc",28396.551,6.00,6,0.100,7137.000,0.200,1810.000,0.300,1520.000,0.500,1725.000,1.000,721.000,5.000,0
"04/08/08","00:08:39",12867.000,"cc",28349.541,6.00,6,0.100,7165.000,0.200,1813.000,0.300,1506.000,0.500,1731.000,1.000,652.000,5.000,0
"04/08/08","00:08:45",12547.000,"cc",28341.481,6.00,6,0.100,6934.000,0.200,1779.000,0.300,1511.000,0.500,1626.000,1.000,697.000,5.000,0
"04/08/08","00:08:51",12709.000,"cc",28244.219,6.00,6,0.100,6917.000,0.200,1780.000,0.300,1581.000,0.500,1731.000,1.000,700.000,5.000,0
"04/08/08","00:08:57",13236.000,"cc",28280.611,6.00,6,0.100,7235.000,0.200,1893.000,0.300,1557.000,0.500,1847.000,1.000,704.000,5.000,0
"04/08/08","00:09:03",12886.000,"cc",28380.428,6.00,6,0.100,7080.000,0.200,1806.000,0.300,1568.000,0.500,1723.000,1.000,709.000,5.000,0
"04/08/08","00:09:09",12833.000,"cc",28326.336,6.00,6,0.100,6934.000,0.200,1913.000,0.300,1542.000,0.500,1796.000,1.000,648.000,5.000,0
"04/08/08","00:09:15",13051.000,"cc",28275.023,6.00,6,0.100,7047.000,0.200,1917.000,0.300,1538.000,0.500,1836.000,1.000,713.000,5.000,0
"04/08/08","00:09:21",13634.000,"cc",28311.178,6.00,6,0.100,7317.000,0.200,2042.000,0.300,1733.000,0.500,1841.000,1.000,701.000,5.000,0
"04/08/08","00:09:27",13157.000,"cc",28319.150,6.00,6,0.100,7216.000,0.200,1846.000,0.300,1607.000,0.500,1791.000,1.000,697.000,5.000,0
"04/08/08","00:09:33",13026.000,"cc",28345.533,6.00,6,0.100,7090.000,0.200,1877.000,0.300,1590.000,0.500,1774.000,1.000,695.000,5.000,0
"04/08/08","00:09:39",13166.000,"cc",28354.606,6.00,6,0.100,7280.000,0.200,1833.000,0.300,1553.000,0.500,1811.000,1.000,689.000,5.000,0
"04/08/08","00:09:45",12956.000,"cc",28303.377,6.00,6,0.100,6943.000,0.200,1897.000,0.300,1619.000,0.500,1813.000,1.000,684.000,5.000,0
"04/08/08","00:09:51",12954.000,"cc",28430.117,6.00,6,0.100,7093.000,0.200,1824.000,0.300,1621.000,0.500,1731.000,1.000,685.000,5.000,0
"04/08/08","00:09:57",13202.000,"cc",28318.221,6.00,6,0.100,7168.000,0.200,1829.000,0.300,1647.000,0.500,1836.000,1.000,722.000,5.000,0
"04/08/08","00:10:03",13020.000,"cc",28332.830,6.00,6,0.100,6994.000,0.200,1943.000,0.300,1562.000,0.500,1762.000,1.000,759.000,5.000,0
"04/08/08","00:10:09",12929.000,"cc",28266.676,6.00,6,0.100,7022.000,0.200,1853.000,0.300,1525.000,0.500,1797.000,1.000,732.000,5.000,0
"04/08/08","00:10:15",13223.000,"cc",28216.275,6.00,6,0.100,7065.000,0.200,1944.000,0.300,1631.000,0.500,1858.000,1.000,725.000,5.000,0
"04/08/08","00:10:21",13056.000,"cc",28281.197,6.00,6,0.100,7073.000,0.200,1918.000,0.300,1565.000,0.500,1789.000,1.000,711.000,5.000,0
"04/08/08","00:10:27",12944.000,"cc",28355.150,6.00,6,0.100,6942.000,0.200,1847.000,0.300,1665.000,0.500,1787.000,1.000,703.000,5.000,0
"04/08/08","00:10:33",13429.000,"cc",28311.244,6.00,6,0.100,7199.000,0.200,1978.000,0.300,1577.000,0.500,1919.000,1.000,756.000,5.000,0
"04/08/08","00:10:39",12757.000,"cc",28386.475,6.00,6,0.100,6917.000,0.200,1802.000,0.300,1574.000,0.500,1789.000,1.000,675.000,5.000,0
"04/08/08","00:10:45",12518.000,"cc",28285.693,6.00,6,0.100,6804.000,0.200,1858.000,0.300,1515.000,0.500,1680.000,1.000,661.000,5.000,0
"04/08/08","00:10:51",12762.000,"cc",28185.387,6.00,6,0.100,6956.000,0.200,1869.000,0.300,1551.000,0.500,1734.000,1.000,652.000,5.000,0
"04/08/08","00:10:57",12926.000,"cc",28465.297,6.00,6,0.100,7044.000,0.200,1884.000,0.300,1575.000,0.500,1743.000,1.000,680.000,5.000,0
"04/08/08","00:11:03",12756.000,"cc",28400.104,6.00,6,0.100,7067.000,0.200,1750.000,0.300,1560.000,0.500,1730.000,1.000,649.000,5.000,0
"04/08/08","00:11:09",12664.000,"cc",28337.846,6.00,6,0.100,6885.000,0.200,1752.000,0.300,1533.000,0.500,1801.000,1.000,693.000,5.000,0
"04/08/08","00:11:15",12687.000,"cc",28197.272,6.00,6,0.100,6864.000,0.200,1781.000,0.300,1592.000,0.500,1768.000,1.000,682.000,5.000,0
"04/08/08","00:11:21",12636.000,"cc",28315.006,6.00,6,0.100,6760.000,0.200,1834.000,0.300,1568.000,0.500,1778.000,1.000,696.000,5.000,0
"04/08/08","00:11:27",12563.000,"cc",28317.711,6.00,6,0.100,6875.000,0.200,1781.000,0.300,1531.000,0.500,1719.000,1.000,656.000,5.000,1.000
"04/08/08","00:11:33",12641.000,"cc",28337.166,6.00,6,0.100,6848.000,0.200,1815.000,0.300,1541.000,0.500,1738.000,1.000,698.000,5.000,1.000
"04/08/08","00:11:39",12605.000,"cc",28279.971,6.00,6,0.100,6913.000,0.200,1807.000,0.300,1552.000,0.500,1694.000,1.000,639.000,5.000,0
"04/08/08","00:11:45",12212.000,"cc",28316.147,6.00,6,0.100,6625.000,0.200,1767.000,0.300,1450.000,0.500,1721.000,1.000,649.000,5.000,0
"04/08/08","00:11:51",12173.000,"cc",28430.859,6.00,6,0.100,6643.000,0.200,1782.000,0.300,1485.000,0.500,1628.000,1.000,635.000,5.000,0
"04/08/08","00:11:57",11732.000,"cc",28353.326,6.00,6,0.100,6532.000,0.200,1654.000,0.300,1387.000,0.500,1572.000,1.000,587.000,5.000,0
"04/08/08","00:12:03",11960.000,"cc",28353.180,6.00,6,0.100,6626.000,0.200,1697.000,0.300,1424.000,0.500,1575.000,1.000,638.000,5.000,0
"04/08/08","00:12:09",12532.000,"cc",28292.164,6.00,6,0.100,6663.000,0.200,1897.000,0.300,1521.000,0.500,1756.000,1.000,695.000,5.000,0
"04/08/08","00:12:15",12539.000,"cc",28369.852,6.00,6,0.100,6789.000,0.200,1782.000,0.300,1567.000,0.500,1699.000,1.000,702.000,5.000,0
"04/08/08","00:12:21",12784.000,"cc",28285.141,6.00,6,0.100,6871.000,0.200,1913.000,0.300,1573.000,0.500,1742.000,1.000,685.000,5.000,0
"04/08/08","00:12:27",13112.000,"cc",28377.670,6.00,6,0.100,7162.000,0.200,1864.000,0.300,1573.000,0.500,1850.000,1.000,663.000,5.000,0
"04/08/08","00:12:33",12630.000,"cc",28293.141,6.00,6,0.100,6888.000,0.200,1838.000,0.300,1528.000,0.500,1696.000,1.000,679.000,5.000,1.000
"04/08/08","00:12:39",13216.000,"cc",28209.518,6.00,6,0.100,6935.000,0.200,2047.000,0.300,1698.000,0.500,1825.000,1.000,711.000,5.000,0
"04/08/08","00:12:45",13016.000,"cc",28312.772,6.00,6,0.100,6941.000,0.200,1898.000,0.300,1569.000,0.500,1882.000,1.000,726.000,5.000,0
"04/08/08","00:12:51",12915.000,"cc",28300.133,6.00,6,0.100,6939.000,0.200,1898.000,0.300,1618.000,0.500,1757.000,1.000,703.000,5.000,0
"04/08/08","00:12:57",12676.000,"cc",28364.525,6.00,6,0.100,6939.000,0.200,1815.000,0.300,1543.000,0.500,1694.000,1.000,685.000,5.000,0
"04/08/08","00:13:03",12352.000,"cc",28287.070,6.00,6,0.100,6792.000,0.200,1814.000,0.300,1431.000,0.500,1709.000,1.000,606.000,5.000,0
"04/08/08","00:13:09",12580.000,"cc",28264.516,6.00,6,0.100,6790.000,0.200,1836.000,0.300,1561.000,0.500,1718.000,1.000,675.000,5.000,0
"04/08/08","00:13:15",12425.000,"cc",28383.678,6.00,6,0.100,6717.000,0.200,1769.000,0.300,1484.000,0.500,1734.000,1.000,720.000,5.000,1.000
"04/08/08","00:13:21",12496.000,"cc",28385.914,6.00,6,0.100,6747.000,0.200,1795.000,0.300,1530.000,0.500,1734.000,1.000,690.000,5.000,0
"04/08/08","00:13:27",12739.000,"cc",28147.379,6.00,6,0.100,6875.000,0.200,1821.000,0.300,1618.000,0.500,1736.000,1.000,689.000,5.000,0
"04/08/08","00:13:33",12761.000,"cc",28410.670,6.00,6,0.100,6935.000,0.200,1816.000,0.300,1512.000,0.500,1807.000,1.000,691.000,5.000,0
"04/08/08","00:13:39",12782.000,"cc",28325.277,6.00,6,0.100,6924.000,0.200,1794.000,0.300,1587.000,0.500,1750.000,1.000,727.000,5.000,0
"04/08/08","00:13:45",12673.000,"cc",28300.791,6.00,6,0.100,7050.000,0.200,1807.000,0.300,1494.000,0.500,1675.000,1.000,647.000,5.000,0
"04/08/08","00:13:51",13066.000,"cc",28182.516,6.00,6,0.100,7025.000,0.200,2010.000,0.300,1481.000,0.500,1858.000,1.000,691.000,5.000,1.000
"04/08/08","00:13:57",13369.000,"cc",28352.830,6.00,6,0.100,7042.000,0.200,2020.000,0.300,1649.000,0.500,1940.000,1.000,716.000,5.000,2.000
"04/08/08","00:14:03",12959.000,"cc",28266.895,6.00,6,0.100,7039.000,0.200,1914.000,0.300,1546.000,0.500,1805.000,1.000,655.000,5.000,0
"04/08/08","00:14:09",12540.000,"cc",28487.602,6.00,6,0.100,6889.000,0.200,1802.000,0.300,1474.000,0.500,1676.000,1.000,699.000,5.000,0
"04/08/08","00:14:15",12429.000,"cc",28293.455,6.00,6,0.100,6784.000,0.200,1776.000,0.300,1544.000,0.500,1672.000,1.000,653.000,5.000,0
"04/08/08","00:14:21",12396.000,"cc",28268.188,6.00,6,0.100,6806.000,0.200,1742.000,0.300,1520.000,0.500,1672.000,1.000,656.000,5.000,0
"04/08/08","00:14:27",12249.000,"cc",28354.041,6.00,6,0.100,6593.000,0.200,1781.000,0.300,1553.000,0.500,1635.000,1.000,687.000,5.000,0
"04/08/08","00:14:33",12153.000,"cc",28260.381,6.00,6,0.100,6608.000,0.200,1769.000,0.300,1495.000,0.500,1645.000,1.000,636.000,5.000,0
"04/08/08","00:14:39",12540.000,"cc",28278.981,6.00,6,0.100,6829.000,0.200,1786.000,0.300,1547.000,0.500,1728.000,1.000,650.000,5.000,0
"04/08/08","00:14:45",12814.000,"cc",28218.865,6.00,6,0.100,6999.000,0.200,1777.000,0.300,1559.000,0.500,1746.000,1.000,733.000,5.000,0
"04/08/08","00:14:51",12696.000,"cc",28393.770,6.00,6,0.100,6864.000,0.200,1827.000,0.300,1572.000,0.500,1736.000,1.000,697.000,5.000,0
"04/08/08","00:14:57",12744.000,"cc",28330.516,6.00,6,0.100,6892.000,0.200,1875.000,0.300,1516.000,0.500,1792.000,1.000,669.000,5.000,0
"04/08/08","00:15:03",12832.000,"cc",28265.537,6.00,6,0.100,6861.000,0.200,1882.000,0.300,1607.000,0.500,1749.000,1.000,733.000,5.000,0
"04/08/08","00:15:09",12654.000,"cc",28248.445,6.00,6,0.100,6931.000,0.200,1811.000,0.300,1493.000,0.500,1733.000,1.000,686.000,5.000,0
"04/08/08","00:15:15",12818.000,"cc",28383.268,6.00,6,0.100,6928.000,0.200,1814.000,0.300,1559.000,0.500,1823.000,1.000,694.000,5.000,0
"04/08/08","00:15:21",12900.000,"cc",28286.988,6.00,6,0.100,6907.000,0.200,1868.000,0.300,1577.000,0.500,1814.000,1.000,734.000,5.000,0
"04/08/08","00:15:27",12628.000,"cc",28324.746,6.00,6,0.100,6945.000,0.200,1849.000,0.300,1477.000,0.500,1684.000,1.000,673.000,5.000,0
"04/08/08","00:15:33",12551.000,"cc",28301.119,6.00,6,0.100,6979.000,0.200,1790.000,0.300,1516.000,0.500,1651.000,1.000,615.000,5.000,0
"04/08/08","00:15:39",12104.000,"cc",28425.203,6.00,6,0.100,6696.000,0.200,1698.000,0.300,1466.000,0.500,1577.000,1.000,667.000,5.000,0
"04/08/08","00:15:45",12377.000,"cc",28337.205,6.00,6,0.100,6539.000,0.200,1827.000,0.300,1579.000,0.500,1755.000,1.000,677.000,5.000,0
"04/08/08","00:15:51",13048.000,"cc",28326.606,6.00,6,0.100,6943.000,0.200,1964.000,0.300,1617.000,0.500,1806.000,1.000,718.000,5.000,0
"04/08/08","00:15:57",13476.000,"cc",28230.555,6.00,6,0.100,7186.000,0.200,1931.000,0.300,1698.000,0.500,1881.000,1.000,780.000,5.000,0
"04/08/08","00:16:03",12867.000,"cc",28272.447,6.00,6,0.100,6948.000,0.200,1827.000,0.300,1584.000,0.500,1813.000,1.000,695.000,5.000,0
"04/08/08","00:16:09",12801.000,"cc",28278.484,6.00,6,0.100,6896.000,0.200,1911.000,0.300,1575.000,0.500,1730.000,1.000,689.000,5.000,0
"04/08/08","00:16:15",12927.000,"cc",28252.295,6.00,6,0.100,6947.000,0.200,1880.000,0.300,1584.000,0.500,1837.000,1.000,679.000,5.000,0
"04/08/08","00:16:21",12780.000,"cc",28348.299,6.00,6,0.100,6892.000,0.200,1878.000,0.300,1590.000,0.500,1775.000,1.000,645.000,5.000,0
"04/08/08","00:16:27",12342.000,"cc",28326.336,6.00,6,0.100,6771.000,0.200,1766.000,0.300,1466.000,0.500,1694.000,1.000,645.000,5.000,0